Regional Weather Roundup
Issued by NWS Binghamton, NY

Home | Current Version | Previous Version | Text Only | Print | Product List | Glossary On
Versions: 1 2 3 4 5 6 7 8 9 10 11 12 13 14 15 16 17 18 19 20 21 22 23 24 25 26 27 28 29 30 31 32 33 34 35 36 37 38 39 40 41 42 43 44 45 46 47 48 49 50
000
ASUS41 KBGM 210510
RWRBGM
RWRBGM
BINGHAMTON REGIONAL WEATHER ROUNDUP
NATIONAL WEATHER SERVICE BINGHAMTON NY
1200 AM EST SUN DEC 21 2014

Note: "fair" indicates few or no clouds below 12,000 feet with no
significant weather and/or obstructions to visibility.

* = Station(s) that does not report precipitation, such as rain,
snow, etc, also no thunder or fog.

!NYZ009-015>018-022>025-036-037-044>046-055>057-062-210600
...CENTRAL NEW YORK...

CITY           SKY/WX    TMP DP  RH WIND       PRES   REMARKS
BINGHAMTON     CLOUDY    25  19  78 CALM      30.21S
CORTLAND       CLOUDY    28  25  86 CALM      30.25F
DANSVILLE      CLOUDY    30  22  72 CALM      30.27S
ELMIRA         CLOUDY    28  20  71 N3        30.25F
ITHACA         CLOUDY    27  22  81 S3        30.26S
HAMILTON       CLOUDY    27  21  80 CALM      30.25R
MONTICELLO     CLOUDY    25  21  86 CALM      30.22S
NORWICH        CLOUDY    27  19  74 CALM      30.26S
ONEONTA        CLOUDY    21  19  93 CALM      30.20S
PENN YAN       CLOUDY    28  20  71 CALM      30.26S
ROME           CLOUDY    25  20  81 E6        30.31S WCI  18
SIDNEY         CLOUDY    28  25  86 CALM      30.25S
SYRACUSE       CLOUDY    24  22  91 CALM      30.29S
$$

!PAZ038>040-043-044-047-048-072-210600
...NORTHEAST PENNSYLVANIA...

CITY           SKY/WX    TMP DP  RH WIND       PRES   REMARKS
HAZLETON       CLOUDY    28  21  74 CALM      30.24S
SCRANTON       CLOUDY    30  20  66 NW3       30.25F
TOWANDA*       CLOUDY   N/A N/A N/A CALM      30.28S
$$
&&
KEY
WCI = WIND CHILL INDEX
VSB = VISIBILITY
HX  = HEAT INDEX
$$



USA.gov is the U.S. government's official web portal to all federal, state and local government web resources and services.